Newberry, MI

1:56 PM EDT on October 17, 2017 (GMT -0400)
Luce County

Weather History for KERY - December, 2012

Change the Weather History Date:

Saturday, December 1, 2012

  Actual Average Record
Temperature  
Mean Temperature 30 °F -  
Max Temperature 37 °F 31 °F 51 °F (1922)
Min Temperature 23 °F 18 °F -7 °F (1936)
Degree Days  
Heating Degree Days 35    
Moisture  
Dew Point 31 °F    
Average Humidity 93    
Maximum Humidity 100    
Minimum Humidity 86    
Precipitation  
Precipitation 0.00 in - - ()
Sea Level Pressure  
Sea Level Pressure 30.05 in    
Wind  
Wind Speed 10 mph (SE)    
Max Wind Speed 15 mph    
Max Gust Speed 20 mph    
Visibility 5 miles    
Events Rain , Snow    
Averages and records for this station are not official NWS values.
T = Trace of Precipitation, MM = Missing Value Source: NWS Daily Summary

Daily Weather History Graph

Daily Weather History Graph

Search for Another Location

Airport or City:

Trip Planner

Search our weather history database for the weather conditions in past years. The results will help you decide how hot, cold, wet, or windy it might be!

Date:

Astronomy

Dec. 01, 2012 Rise Set
Actual Time 8:04 AM EST 4:57 PM EST
Civil Twilight 7:30 AM EST 5:31 PM EST
Nautical Twilight 6:53 AM EST 6:08 PM EST
Astronomical Twilight 6:16 AM EST 6:44 PM EST
Moon 7:49 PM EST (12/1) 10:15 AM EST (12/1)
Length of Visible Light 10h 00m
Length of Day
8h 52m
Waning Gibbous, 92% of the Moon is Illuminated
Dec 1
Waning Gibbous
Dec 6
Last Quarter
Dec 13
New
Dec 20
First Quarter
Dec 28
Full

Hourly Weather History & Observations

Time (EST) Temp. Windchill Dew Point Humidity Pressure Visibility Wind Dir Wind Speed Gust Speed Precip Events Conditions
12:14 AM 23.0 °F 13.1 °F 19.4 °F 86% 30.29 in 10.0 mi East 9.2 mph - N/A   Overcast
12:35 AM 23.0 °F 12.4 °F 19.4 °F 86% 30.29 in 10.0 mi East 10.4 mph - N/A   Overcast
12:55 AM 23.0 °F 13.1 °F 19.4 °F 86% 30.30 in 10.0 mi East 9.2 mph - N/A   Overcast
1:15 AM 23.0 °F 13.1 °F 19.4 °F 86% 30.28 in 10.0 mi East 9.2 mph - N/A   Overcast
1:35 AM 23.0 °F 12.4 °F 19.4 °F 86% 30.27 in 10.0 mi East 10.4 mph - N/A   Overcast
1:55 AM 23.0 °F 12.4 °F 21.2 °F 93% 30.27 in 10.0 mi ESE 10.4 mph - N/A   Overcast
2:14 AM 23.0 °F 13.1 °F 21.2 °F 93% 30.27 in 10.0 mi ESE 9.2 mph - N/A   Overcast
2:35 AM 24.8 °F 14.6 °F 21.2 °F 86% 30.27 in 10.0 mi ESE 10.4 mph - N/A   Overcast
3:15 AM 24.8 °F 16.1 °F 21.2 °F 86% 30.27 in 10.0 mi ESE 8.1 mph - N/A   Overcast
4:14 AM 26.6 °F 18.2 °F 24.8 °F 93% 30.25 in 10.0 mi East 8.1 mph - N/A   Overcast
4:35 AM 26.6 °F 17.5 °F 24.8 °F 93% 30.24 in 7.0 mi ESE 9.2 mph - N/A   Overcast
4:55 AM 26.6 °F 16.2 °F 24.8 °F 93% 30.22 in 7.0 mi ESE 11.5 mph - N/A   Overcast
5:15 AM 26.6 °F 17.5 °F 24.8 °F 93% 30.22 in 5.0 mi ESE 9.2 mph 17.3 mph N/A   Overcast
5:35 AM 26.6 °F 17.5 °F 26.6 °F 100% 30.22 in 5.0 mi ESE 9.2 mph - N/A   Overcast
5:55 AM 26.6 °F 17.5 °F 26.6 °F 100% 30.22 in 5.0 mi ESE 9.2 mph - N/A   Overcast
6:15 AM 28.4 °F 18.5 °F 26.6 °F 93% 30.19 in 3.0 mi ESE 11.5 mph - N/A   Overcast
7:35 AM 28.4 °F 19.7 °F 26.6 °F 93% 30.18 in 0.8 mi ESE 9.2 mph - N/A   Overcast
8:15 AM 28.4 °F 20.4 °F 28.4 °F 100% 30.17 in 2.5 mi ESE 8.1 mph - N/A   Overcast
8:35 AM 30.2 °F 21.3 °F 28.4 °F 93% 30.15 in 4.0 mi ESE 10.4 mph - N/A   Overcast
8:54 AM 30.2 °F 22.6 °F 28.4 °F 93% 30.14 in 3.0 mi SE 8.1 mph - N/A   Overcast
9:15 AM 32.0 °F 24.2 °F 30.2 °F 93% 30.14 in 3.0 mi SE 9.2 mph - N/A   Overcast
9:34 AM 33.8 °F 25.8 °F 32.0 °F 93% 30.15 in 4.0 mi SSE 10.4 mph 18.4 mph N/A   Overcast
9:55 AM 33.8 °F 25.3 °F 32.0 °F 93% 30.15 in 4.0 mi SE 11.5 mph 17.3 mph N/A   Overcast
10:15 AM 33.8 °F 25.8 °F 32.0 °F 93% 30.14 in 4.0 mi SE 10.4 mph - N/A   Overcast
10:35 AM 33.8 °F 24.8 °F 32.0 °F 93% 30.12 in 4.0 mi SE 12.7 mph 19.6 mph N/A   Overcast
10:55 AM 33.8 °F 24.8 °F 32.0 °F 93% 30.11 in 4.0 mi SE 12.7 mph 19.6 mph N/A   Overcast
11:14 AM 33.8 °F 24.8 °F 32.0 °F 93% 30.10 in 4.0 mi SE 12.7 mph - N/A   Overcast
11:35 AM 33.8 °F 24.3 °F 32.0 °F 93% 30.10 in 4.0 mi SE 13.8 mph 19.6 mph N/A   Overcast
11:54 AM 33.8 °F 23.9 °F 32.0 °F 93% 30.09 in 4.0 mi SE 15.0 mph - N/A   Overcast
12:15 PM 33.8 °F 25.8 °F 33.8 °F 100% 30.09 in 4.0 mi SE 10.4 mph 17.3 mph N/A   Overcast
12:35 PM 33.8 °F 24.8 °F 32.0 °F 93% 30.07 in 4.0 mi SE 12.7 mph 17.3 mph N/A   Overcast
12:55 PM 33.8 °F 25.3 °F 33.8 °F 100% 30.06 in 4.0 mi SE 11.5 mph 17.3 mph N/A   Overcast
1:15 PM 35.6 °F 27.5 °F 33.8 °F 93% 30.03 in 4.0 mi SE 11.5 mph - N/A   Overcast
1:35 PM 35.6 °F 27.5 °F 33.8 °F 93% 30.03 in 4.0 mi SE 11.5 mph - N/A   Overcast
1:55 PM 35.6 °F 28.0 °F 33.8 °F 93% 30.02 in 4.0 mi SSE 10.4 mph - N/A   Overcast
2:14 PM 35.6 °F 27.5 °F 33.8 °F 93% 30.01 in 4.0 mi SE 11.5 mph 17.3 mph N/A   Overcast
2:35 PM 35.6 °F 27.1 °F 33.8 °F 93% 29.99 in 5.0 mi SE 12.7 mph 16.1 mph N/A   Overcast
2:54 PM 35.6 °F 26.6 °F 33.8 °F 93% 29.98 in 5.0 mi SE 13.8 mph - N/A   Overcast
3:15 PM 35.6 °F 27.5 °F 33.8 °F 93% 29.98 in 4.0 mi SE 11.5 mph 17.3 mph N/A   Overcast
3:34 PM 35.6 °F 28.0 °F 33.8 °F 93% 29.97 in 4.0 mi SE 10.4 mph - N/A   Overcast
4:15 PM 35.6 °F 28.6 °F 33.8 °F 93% 29.95 in 4.0 mi SE 9.2 mph - N/A   Overcast
4:34 PM 35.6 °F 29.2 °F 33.8 °F 93% 29.95 in 5.0 mi SE 8.1 mph - N/A   Overcast
4:55 PM 35.6 °F 29.9 °F 33.8 °F 93% 29.96 in 7.0 mi SSE 6.9 mph - N/A   Overcast
5:14 PM 35.6 °F 28.6 °F 33.8 °F 93% 29.95 in 7.0 mi SSE 9.2 mph - N/A   Overcast
5:35 PM 35.6 °F 29.2 °F 33.8 °F 93% 29.94 in 7.0 mi SSE 8.1 mph - N/A   Overcast
6:15 PM 35.6 °F 28.0 °F 33.8 °F 93% 29.90 in 5.0 mi SSE 10.4 mph - N/A   Overcast
6:54 PM 35.6 °F 27.5 °F 33.8 °F 93% 29.89 in 4.0 mi South 11.5 mph - N/A Rain Light Rain
7:15 PM 35.6 °F 27.5 °F 35.6 °F 100% 29.86 in 4.0 mi SSE 11.5 mph - N/A   Drizzle
7:35 PM 37.4 °F 28.9 °F 35.6 °F 93% 29.86 in 4.0 mi SSE 13.8 mph 18.4 mph N/A Rain Light Rain
7:55 PM 37.4 °F 30.3 °F 35.6 °F 93% 29.86 in 4.0 mi SSE 10.4 mph 16.1 mph N/A   Overcast
8:15 PM 37.4 °F 31.4 °F 35.6 °F 93% 29.87 in 4.0 mi SSE 8.1 mph - N/A   Overcast
8:34 PM 37.4 °F 30.8 °F 35.6 °F 93% 29.86 in 3.0 mi SSE 9.2 mph - N/A Rain Light Rain
8:55 PM 35.6 °F 27.5 °F 35.6 °F 100% 29.84 in 2.0 mi SSE 11.5 mph - N/A Snow Light Snow
9:14 PM 35.6 °F 28.6 °F 35.6 °F 100% 29.83 in 2.0 mi SSE 9.2 mph - N/A   Overcast
9:35 PM 35.6 °F 28.0 °F 35.6 °F 100% 29.82 in 2.0 mi SSE 10.4 mph 18.4 mph N/A   Overcast
9:55 PM 37.4 °F 31.4 °F 35.6 °F 93% 29.83 in 1.8 mi South 8.1 mph - N/A   Overcast
10:14 PM 37.4 °F 31.4 °F 35.6 °F 93% 29.82 in 1.5 mi SSE 8.1 mph - N/A   Overcast
10:35 PM 37.4 °F 31.4 °F 35.6 °F 93% 29.81 in 1.5 mi SSE 8.1 mph - N/A Rain Light Rain
10:54 PM 37.4 °F 32.8 °F 35.6 °F 93% 29.81 in 1.5 mi SSE 5.8 mph - N/A Rain Light Rain
11:15 PM 37.4 °F 33.8 °F 35.6 °F 93% 29.80 in 1.2 mi SSE 4.6 mph - N/A Rain Light Rain
11:35 PM 37.4 °F 32.8 °F 35.6 °F 93% 29.79 in 1.2 mi SSE 5.8 mph - N/A Rain Light Rain
11:54 PM 37.4 °F 33.8 °F 37.4 °F 100% 29.79 in 1.2 mi SSE 4.6 mph - N/A Rain Light Rain